SL-12 R/B(AUX MOTOR), 36407

Orbit data source: Space-Track

SL-12 R/B(AUX MOTOR), 36407 is space debris in HEO originally from a launch on Mon, 01 Mar 2010 UTC launched from the Tyuratam Missile And Space Complex (TTMTR). Debris objects in space refer to the collection of defunct objects orbiting the Earth. Examples of debris include non-operational satellites, rocket bodies, and fragments generated from explosions, collisions, or faulty payload assembly.

Loading next visibility...
Identifier
36407, 2010-007H
Orbit
HEO
Country
Flag of CISCIS
Related business
Manufacturer
RKKE
Mission
Spacecraft
Bus & Motor
SOZ, Unknown motor
Mass
56 kg wet, 56 kg dry
Launch date (UTC)
2010-03-01 (17 years ago)
Launch vehicle
Unknown
Launch site
Tyuratam Missile And Space Complex (TTMTR)
Object type
Payload
Rocket body
Debris
Shape & HBR
Cyl, 0.6 m
Radar Cross Section
0.660 m², Medium (>0.1 m² and < 1m²)

Expand to show TLE details & history
Last TLE update: 1 week ago

TLE from 1 week ago
0 SL-12 R/B(AUX MOTOR)
1 36407U 10007H   26250.01629979  .00000003  00000-0 -45077-3 0  9996
2 36407  65.3279 153.9872 5561344 264.3205  33.2516  4.25543054255878
Epoch: 2026-09-07T00:23Z
TLE epoch observation values (Epoch: 2026-09-07T00:23:28.301Z)
Latitude
0.00004°
Longitude
162.02646°
Altitude
5,393.274 km
Speed
6.554 km/s
True Right ascension
10h 15m 59s
True Declination
0° 00' 00"
Sunlit
Object was in daylight at epoch
Visualization orbit readout
Latitude
Unknown
Longitude
Unknown
Altitude
Unknown
Speed
Unknown
Apparent Right ascension
Unknown
Apparent Declination
Unknown
Sunlit
N/A
Visualization observer readout
Local Sidereal Time
21:02:13
Azimuth
Unknown
Elevation
Unknown
Doppler factor
Unknown
Orbital elements
Apogee altitude
18,651.592 km
Perigee altitude
761.244 km
Semi-major axis
16,084.555 km
Eccentricity
0.55613
Inclination
65.3279°
RAAN
153.9872°
Arg. of periapsis
264.3205°
True anomaly
95.79166°
Mean anomaly
33.2516°
Eccentric anomaly
61.16498°
Mean motion
1.06397 °/min
Orbital period
338.36 mins
BSTAR
-0.00045077
Loading maneuver chart data...
Computing Atmospheric mass density...
Loading historical data...
Loading historical data...
Loading historical data...
Loading historical data...
Loading historical data...
Loading historical data...
Loading historical data...

Documentation

Showing up to 5 results
|